Location: Bonaustraße
(48.4603°N, 11.9280°E)
Time: 00:15:23
(UTC+02:00)

ISS - Visible Passes

Search period start: 10 May 2021 00:00
Search period end: 20 May 2021 00:00
Orbit: 418 x 421 km, 51.6° (Epoch: 09 May)

Date Brightness Start Highest point End Pass type
(mag) Time Alt. Az. Time Alt. Az. Time Alt. Az.
10 May -1.1 01:17:26 14° ENE 01:17:26 14° ENE 01:18:00 10° ENE visible
10 May -2.9 02:50:22 32° WNW 02:51:34 49° N 02:54:52 10° ENE visible
10 May -3.1 04:25:20 10° WNW 04:28:41 59° NNE 04:32:03 10° E visible
11 May -3.0 02:04:20 54° NNE 02:04:20 54° NNE 02:07:24 10° ENE visible
11 May -2.9 03:37:52 10° WNW 03:41:11 51° N 03:44:29 10° E visible
12 May -2.0 01:18:16 27° ENE 01:18:16 27° ENE 01:19:57 10° ENE visible
12 May -2.7 02:51:11 16° WNW 02:53:40 47° N 02:56:57 10° E visible
12 May -3.8 04:27:17 10° WNW 04:30:41 86° SSW 04:34:03 10° ESE visible
13 May -1.1 00:32:06 13° ENE 00:32:06 13° ENE 00:32:30 10° ENE visible
13 May -2.7 02:05:01 32° NW 02:06:08 46° N 02:09:26 10° ENE visible
13 May -3.6 03:39:50 10° WNW 03:43:13 73° NNE 03:46:36 10° ESE visible
14 May -2.9 01:18:38 49° N 01:18:38 49° N 01:21:56 10° ENE visible
14 May -3.2 02:52:24 10° WNW 02:55:44 59° NNE 02:59:05 10° E visible
14 May -3.4 04:29:18 10° WNW 04:32:31 41° SSW 04:35:43 10° SE visible
14 May -3.6 22:51:03 10° SW 22:54:18 46° SSE 22:55:37 29° E visible
15 May -3.1 00:27:47 10° W 00:31:06 56° NNW 00:34:26 10° ENE visible
15 May -2.9 02:04:55 10° WNW 02:08:14 51° N 02:11:33 10° E visible
15 May -3.8 03:41:47 10° WNW 03:45:08 61° SSW 03:48:28 10° SE visible
15 May -3.0 22:03:56 10° SSW 22:06:57 31° SE 22:09:58 10° E visible
15 May -3.5 23:40:15 10° W 23:43:36 68° NNW 23:46:59 10° ENE visible
16 May -2.7 01:17:25 10° WNW 01:20:42 47° N 01:23:59 10° E visible
16 May -3.9 02:54:19 10° WNW 02:57:42 85° SSW 03:01:05 10° ESE visible
16 May -2.3 04:31:42 10° W 04:34:09 19° SW 04:36:35 10° S visible
16 May -3.8 22:52:46 10° WSW 22:56:08 88° NNW 22:59:31 10° ENE visible
17 May -2.7 00:29:53 10° WNW 00:33:10 46° N 00:36:27 10° ENE visible
17 May -3.6 02:06:52 10° WNW 02:10:15 73° NNE 02:13:37 10° ESE visible
17 May -2.9 03:43:55 10° W 03:46:51 28° SW 03:49:47 10° SSE visible
17 May -3.8 22:05:22 10° WSW 22:08:42 68° SSE 22:12:04 10° ENE visible
17 May -2.8 23:42:21 10° W 23:45:38 49° N 23:48:56 10° ENE visible
18 May -3.2 01:19:24 10° WNW 01:22:45 59° NNE 01:22:54 58° NNE visible
18 May -3.1 22:54:47 10° W 22:58:06 56° NNW 23:01:27 10° ENE visible
19 May -2.9 00:31:56 10° WNW 00:35:14 51° N 00:36:29 31° ENE visible
19 May -1.3 02:08:48 10° WNW 02:09:24 14° WNW 02:09:24 14° WNW visible
19 May -3.4 22:07:15 10° W 22:10:36 68° NNW 22:13:58 10° ENE visible
19 May -2.8 23:44:25 10° WNW 23:47:42 47° N 23:50:18 15° ENE visible
